[[{"header":{"parameterUnit":"m.s-1","parameterCategory":1,"la1":30.2991,"la2":30.254,"lo1":-89.0895,"lo2":-89.0444,"dy":0.0017,"dx":0.0017,"nx":28,"ny":28,"refTime":"2023-10-24T09:00:00:Z","depth":0,"parameterNumber":2,"parameterNumberName":"U-component_of_WINDS"},"data":[0,0,0,0,0,0,0,0,0,0,0,0,0,0,0,0,0,0,0,0,0,0,0,0,0,0,0,0,0,0,0,0,0,0,0,0,0,0,0,0,0,0,0,0,0,0,0,0,0,0,0,0,0,0,0,0,0,0,-6.726,-6.7261,0,-6.7358,-6.7359,-6.736,-6.7283,-6.728,-6.7277,-6.7274,-6.7371,-6.7377,-6.7382,0,0,0,0,0,0,0,0,0,0,0,0,0,-6.7004,-6.701,-6.726,-6.7261,-6.7262,-6.7358,-6.7359,-6.736,-6.7284,-6.728,-6.7276,-6.7272,-6.7369,-6.7376,-6.7383,0,0,0,0,0,0,0,0,0,0,0,0,0,-6.711,-6.7011,-6.726,-6.7236,-6.7235,-6.7358,-6.7359,-6.7361,-6.7285,-6.728,-6.7275,-6.727,-6.7367,-6.7375,-6.7384,-6.7534,0,0,-6.741,-6.7413,0,0,0,0,0,0,0,0,-6.7104,-6.712,-6.7238,-6.7238,-6.7237,-6.7303,-6.7305,-6.7419,-6.7286,-6.7266,-6.7274,-6.7268,-6.7352,-6.7362,-6.7391,-6.7539,-6.7543,-6.741,-6.7415,-6.7419,-6.7421,0,0,0,0,0,0,0,-6.7097,-6.7115,-6.7299,-6.724,-6.7239,-6.7219,-6.7229,-6.7326,-6.7335,-6.7267,-6.7262,-6.7274,-6.7351,-6.7383,-6.7393,-6.7545,-6.741,-6.7418,-6.7423,-6.7426,-6.7821,-6.7826,0,0,0,0,0,0,-6.7092,-6.7109,-6.7295,-6.7301,-6.7157,-6.7228,-6.7239,-6.7287,-6.7334,-6.7337,-6.7279,-6.7271,-6.7371,-6.7383,-6.7396,-6.7573,-6.7419,-6.7427,-6.7432,-6.7816,-6.7822,-6.7828,0,0,0,0,0,0,-6.7087,-6.711,-6.7291,-6.7204,-6.7226,-6.7238,-6.7292,-6.7291,-6.7323,-6.7343,-6.7344,-6.7309,-6.7367,-6.7384,-6.7501,-6.7576,-6.7431,-6.7438,-6.7809,-6.7818,-6.7825,-6.7931,0,0,0,0,0,0,-6.708,-6.7108,-6.7166,-6.7206,-6.7231,-6.7395,-6.7297,-6.7297,-6.7338,-6.7329,-6.7372,-6.7374,-6.7365,-6.7488,-6.7509,-6.7585,-6.7445,-6.7802,-6.7813,-6.7823,-6.7921,-6.7942,-6.796,0,0,0,0,0,-6.7071,-6.7191,-6.7169,-6.7192,-6.7303,-6.74,-6.7414,-6.7401,-6.7345,-6.7402,-6.7415,-6.7373,-6.7566,-6.7501,-6.7524,-6.7603,-6.7797,-6.781,-6.7822,-6.7912,-6.7938,-6.796,0,0,0,0,0,0,-6.7158,-6.7196,-6.7172,-6.7309,-6.7352,-6.7387,-6.7458,-6.7429,-6.7487,-6.7476,-6.7457,-6.7468,-6.759,-6.7609,-6.7536,-6.7752,-6.7672,-6.769,-6.7734,-6.7758,-6.7777,-6.7768,-6.7452,0,0,0,0,0,-6.7194,-6.727,-6.7299,-6.7417,-6.744,-6.7446,-6.7488,-6.7475,-6.7518,-6.7535,-6.7556,-6.76,-6.7669,-6.7716,-6.7781,-6.7926,-6.7933,-6.7992,-6.8011,-6.8027,-6.8041,-6.8117,-6.8143,-6.7868,-6.7868,-6.7868,0,0,-6.7266,-6.7297,-6.7345,-6.7435,-6.7467,-6.7545,-6.7461,-6.7548,-6.7605,-6.7548,-6.7658,-6.7677,-6.7724,-6.7855,-6.7913,-6.7874,-6.8119,-6.8043,-6.8055,-6.806,-6.8132,-6.8158,-6.8181,-6.7876,-6.7875,-6.7873,0,0,-6.7438,-6.747,-6.7571,-6.7606,-6.7655,-6.7659,-6.7684,-6.7725,-6.7734,-6.7846,-6.7805,-6.7873,-6.7995,-6.8029,-6.8063,-6.8252,-6.8215,-6.8275,-6.8374,-6.8449,-6.847,-6.8489,-6.8554,-6.8578,-6.8289,-6.8289,-6.8289,0,-6.7521,-6.7638,-6.7626,-6.7716,-6.7756,-6.7711,-6.7812,-6.7846,-6.7914,-6.7942,-6.7899,-6.805,-6.8079,-6.8216,-6.8263,-6.8293,-6.8319,-6.8266,-6.8469,-6.8488,-6.8505,-6.8566,-6.8591,-6.8296,-6.8295,-6.8294,-6.8294,0,-6.7737,-6.7819,-6.7895,-6.7963,-6.8013,-6.8108,-6.811,-6.8161,-6.8145,-6.8154,-6.8268,-6.8302,-6.8373,-6.8406,-6.839,-6.8542,-6.8515,-6.8471,-6.839,-6.8538,-6.8595,-6.8619,-6.8305,-6.8303,-6.8301,-6.8299,0,0,-6.7961,-6.8024,-6.8052,-6.8082,-6.8136,-6.8198,-6.8293,-6.8363,-6.8406,-6.8457,-6.8533,-6.8639,-6.8598,-6.8637,-6.8626,-6.8692,-6.8837,-6.8639,-6.864,-6.8672,-6.9003,-6.9033,-6.906,-6.8815,-6.882,-6.8823,-6.8998,0,-6.8132,-6.8295,-6.8289,-6.844,-6.8515,-6.8475,-6.8557,-6.8598,-6.861,-6.8675,-6.8688,-6.8761,-6.8704,-6.8727,-6.8791,-6.8806,-6.8902,-6.8794,-6.8883,-6.8887,-6.8868,-6.909,-6.9122,-6.9284,-6.902,-6.9024,-6.9027,0,-6.8352,-6.8411,-6.8571,-6.8614,-6.8645,-6.8718,-6.8783,-6.8847,-6.8893,-6.8897,-6.8942,-6.8921,-6.9015,-6.8937,-6.9065,-6.8991,-6.9029,-6.9042,-6.9048,-6.9052,-6.8962,-6.9096,-6.9336,-6.9359,-6.9063,-6.906,-6.9057,0,-6.8495,-6.8615,-6.8725,-6.8753,-6.8807,-6.8859,-6.8884,-6.8926,-6.897,-6.9027,-6.9055,-6.9123,-6.9158,-6.9211,-6.9209,-6.9152,-6.9339,-6.926,-6.9343,-6.9343,-6.9379,-6.9376,-6.9624,-6.9411,-6.9411,-6.9411,-6.941,0,-6.8684,-6.8782,-6.879,-6.8857,-6.8967,-6.896,-6.9067,-6.9087,-6.9125,-6.9195,-6.9167,-6.9233,-6.9228,-6.9295,-6.9295,-6.94,-6.9418,-6.9422,-6.942,-6.9422,-6.9421,-6.9442,-6.9429,-6.9417,-6.9416,-6.9414,-6.9413,0,-6.8859,-6.8869,-6.8986,-6.9029,-6.9042,-6.912,-6.9156,-6.922,-6.9231,-6.932,-6.9341,-6.9358,-6.9435,-6.944,-6.953,-6.953,-6.9657,-6.9644,-6.964,-6.9636,-6.9717,-6.9708,-6.9984,-7.0019,-6.9787,-6.979,-6.9792,0,-6.8976,-6.9051,-6.9103,-6.9149,-6.9177,-6.9251,-6.9295,-6.9292,-6.934,-6.94,-6.9457,-6.9532,-6.9591,-6.9718,-6.9737,-6.9806,-6.9792,-6.9885,-6.9802,-6.9802,-6.9789,-6.9783,-6.9789,-6.9899,-6.9901,-6.9903,-6.9905,0,-6.9183,-6.9185,-6.925,-6.9319,-6.9374,-6.9427,-6.9477,-6.9516,-6.9519,-6.9574,-6.9654,-6.97,-6.9793,-6.9867,-6.9935,-6.996,-6.9932,-6.9932,-6.9954,-6.9954,-6.9947,-6.9948,-6.9679,-6.9924,-6.9922,-6.9921,-6.992,-6.9919,-6.933,-6.9394,-6.9441,-6.9515,-6.9553,-6.9601,-6.9663,-6.9683,-6.975,-6.9825,-6.982,-6.9908,-6.9954,-7.0042,-7.0073,-7.0141,-7.0109,-7.0142,-7.0149,-7.0156,-7.0163,-6.9941,-7.0154,-7.0153,-7.0153,-7.0152,-7.0152,0,-6.9531,-6.956,-6.9629,-6.9701,-6.976,-6.9733,-6.9787,-6.9837,-6.9915,-6.9961,-7.0021,-7.0113,-7.0186,-7.0213,-7.0284,-7.0334,-7.0323,-7.0352,-7.0346,-7.0351,-7.0189,-7.0161,-7.0359,-7.0359,-7.0359,-7.0359,-7.0359,-7.0359,-6.9642,-6.9749,-6.9757,-6.9883,-6.9911,-6.9997,-7.003,-7.0074,-7.0111,-7.0215,-7.0276,-7.0294,-7.0332,-7.0406,-7.0472,-7.0478,-7.0504,-7.0537,-7.0538,-7.0384,-7.0363,-7.0343,-7.0316,-7.0544,-7.0544,-7.0694,-7.0695,-7.0696]},{"header":{"parameterUnit":"m.s-1","parameterCategory":1,"la1":30.2991,"la2":30.254,"lo1":-89.0895,"lo2":-89.0444,"dy":0.0017,"dx":0.0017,"nx":28,"ny":28,"refTime":"2023-10-24T09:00:00:Z","depth":0,"parameterNumber":3,"parameterNumberName":"V-component_of_WINDS"},"data":[0,0,0,0,0,0,0,0,0,0,0,0,0,0,0,0,0,0,0,0,0,0,0,0,0,0,0,0,0,0,0,0,0,0,0,0,0,0,0,0,0,0,0,0,0,0,0,0,0,0,0,0,0,0,0,0,0,0,2.5385,2.5386,0,2.5462,2.5463,2.5463,2.5429,2.5427,2.5425,2.5423,2.5499,2.5503,2.5506,0,0,0,0,0,0,0,0,0,0,0,0,0,2.5208,2.5211,2.5385,2.5386,2.5387,2.5462,2.5463,2.5464,2.5429,2.5427,2.5425,2.5422,2.5498,2.5502,2.5507,0,0,0,0,0,0,0,0,0,0,0,0,0,2.5284,2.5212,2.5385,2.5379,2.5379,2.5461,2.5463,2.5464,2.543,2.5427,2.5424,2.5421,2.5496,2.5502,2.5507,2.5599,0,0,2.5525,2.5527,0,0,0,0,0,0,0,0,2.528,2.5291,2.5379,2.5379,2.538,2.5433,2.5428,2.5509,2.543,2.541,2.5423,2.542,2.5479,2.5486,2.5506,2.5603,2.5606,2.5525,2.5529,2.5531,2.5533,0,0,0,0,0,0,0,2.5275,2.5288,2.5415,2.538,2.5381,2.5372,2.538,2.5443,2.546,2.5412,2.541,2.5419,2.5479,2.5501,2.5508,2.5607,2.5525,2.553,2.5534,2.5536,2.5786,2.5789,0,0,0,0,0,0,2.527,2.5283,2.5413,2.5417,2.5322,2.5378,2.5386,2.5419,2.5459,2.5462,2.5422,2.5417,2.5493,2.5501,2.5511,2.5622,2.5531,2.5536,2.554,2.5782,2.5786,2.579,0,0,0,0,0,0,2.5266,2.5282,2.541,2.535,2.5366,2.5384,2.542,2.5422,2.5444,2.5466,2.5469,2.5442,2.5491,2.5503,2.5578,2.5624,2.5539,2.5544,2.5779,2.5784,2.5788,2.5846,0,0,0,0,0,0,2.5261,2.5281,2.5316,2.5351,2.5369,2.5476,2.5423,2.5425,2.5454,2.5449,2.5486,2.5489,2.549,2.557,2.5584,2.5631,2.5548,2.5775,2.5781,2.5787,2.584,2.5852,2.5863,0,0,0,0,0,2.5255,2.5327,2.5317,2.5333,2.5413,2.5479,2.5489,2.5489,2.5458,2.5493,2.5509,2.5488,2.5618,2.5578,2.5593,2.5643,2.5772,2.5779,2.5786,2.5835,2.585,2.5862,0,0,0,0,0,0,2.5295,2.5332,2.5321,2.5407,2.5441,2.5473,2.5517,2.5505,2.5547,2.554,2.5538,2.5547,2.5625,2.5642,2.5597,2.5735,2.569,2.57,2.5721,2.5736,2.5747,2.5741,2.5553,0,0,0,0,0,2.5314,2.5365,2.5394,2.5467,2.5485,2.5499,2.5527,2.5525,2.5559,2.5572,2.5593,2.5626,2.5674,2.5706,2.5752,2.5843,2.5851,2.5884,2.5896,2.5905,2.5914,2.5965,2.5981,2.5814,2.5814,2.5814,0,0,2.5353,2.538,2.5411,2.5476,2.5502,2.5555,2.551,2.5568,2.5607,2.5581,2.5654,2.5671,2.5708,2.5792,2.583,2.5808,2.5963,2.5914,2.5921,2.5925,2.5975,2.599,2.6005,2.5819,2.5818,2.5817,0,0,2.5451,2.5477,2.5541,2.5569,2.5609,2.5619,2.5634,2.567,2.5681,2.5755,2.5737,2.5784,2.5867,2.5895,2.592,2.6034,2.6017,2.6049,2.6107,2.6158,2.6171,2.6183,2.6224,2.6239,2.6058,2.6058,2.6058,0,2.5494,2.5574,2.5576,2.5636,2.5666,2.5647,2.5713,2.5739,2.5792,2.5813,2.5788,2.5894,2.5917,2.6009,2.6037,2.6058,2.6076,2.6044,2.6169,2.6181,2.6192,2.6232,2.6247,2.6062,2.6061,2.6061,2.6061,0,2.5626,2.5682,2.573,2.5784,2.5819,2.5881,2.5893,2.5928,2.5924,2.5936,2.6013,2.6042,2.6094,2.6116,2.6111,2.6208,2.6193,2.6169,2.6123,2.6211,2.6249,2.6264,2.6067,2.6066,2.6065,2.6064,0,0,2.5748,2.5806,2.5823,2.5849,2.5894,2.5937,2.6,2.6053,2.6084,2.6122,2.6175,2.6248,2.6227,2.6255,2.6254,2.6298,2.6389,2.6269,2.627,2.6291,2.6499,2.6517,2.6535,2.6379,2.6382,2.6384,2.6496,0,2.5851,2.5962,2.5967,2.6068,2.6121,2.6106,2.6161,2.6195,2.6209,2.6256,2.6271,2.6323,2.6291,2.6308,2.6352,2.6369,2.6431,2.6361,2.6428,2.643,2.6419,2.6554,2.6573,2.6677,2.6511,2.6513,2.6515,0,2.5984,2.6029,2.6136,2.6177,2.6199,2.6249,2.6299,2.6344,2.6383,2.639,2.6425,2.6418,2.6483,2.6437,2.6527,2.6479,2.6508,2.6521,2.6525,2.653,2.6477,2.6564,2.671,2.6726,2.6538,2.6536,2.6534,0,2.6064,2.6151,2.6227,2.6249,2.6298,2.6334,2.6356,2.6392,2.6425,2.6469,2.6491,2.6541,2.6569,2.6609,2.6617,2.6582,2.6708,2.6661,2.6716,2.6716,2.6742,2.674,2.6895,2.676,2.676,2.676,2.676,0,2.6177,2.6244,2.6264,2.6311,2.6385,2.6392,2.6465,2.6484,2.6518,2.6568,2.6558,2.6606,2.6613,2.6663,2.6669,2.6744,2.6756,2.6764,2.6765,2.6765,2.6764,2.6783,2.6776,2.6764,2.6763,2.6762,2.6762,0,2.6278,2.6294,2.6377,2.6418,2.643,2.6483,2.6519,2.6564,2.6578,2.6643,2.6658,2.668,2.6739,2.6751,2.6819,2.6824,2.6913,2.6907,2.69,2.69,2.6954,2.6949,2.7127,2.7151,2.7,2.7001,2.7003,0,2.6349,2.64,2.6449,2.6483,2.6507,2.6562,2.6596,2.6605,2.6641,2.6692,2.6731,2.6789,2.6835,2.6929,2.6951,2.7004,2.6999,2.7058,2.7007,2.7006,2.7001,2.6998,2.7004,2.7067,2.7069,2.707,2.7071,0,2.6474,2.6481,2.6531,2.6586,2.6628,2.6671,2.6712,2.674,2.6755,2.6796,2.6857,2.6893,2.6965,2.7023,2.7077,2.7099,2.7088,2.7088,2.7103,2.7103,2.7098,2.7103,2.6927,2.7083,2.7082,2.7081,2.708,2.708,2.6563,2.6609,2.6651,2.6708,2.6741,2.678,2.6826,2.6848,2.6899,2.6959,2.6961,2.7028,2.7068,2.714,2.7166,2.7218,2.72,2.7222,2.7227,2.7233,2.7239,2.7091,2.7228,2.7227,2.7227,2.7227,2.7227,0,2.6688,2.6715,2.6769,2.6828,2.6874,2.6862,2.6907,2.6946,2.7006,2.7045,2.7092,2.7163,2.722,2.7248,2.7305,2.7341,2.7338,2.7356,2.7353,2.7359,2.7251,2.7232,2.7358,2.7358,2.7358,2.7358,2.7358,2.7358,2.6758,2.6836,2.6849,2.6944,2.697,2.7037,2.7064,2.7101,2.7133,2.7213,2.7261,2.728,2.7316,2.7375,2.7428,2.7434,2.7456,2.7477,2.7481,2.738,2.7366,2.7353,2.7336,2.7481,2.7481,2.7585,2.7586,2.7586]}]]